TimeEST,TemperatureF,Dew PointF,Humidity,Sea Level PressureIn,VisibilityMPH,Wind Direction,Wind SpeedMPH,Gust SpeedMPH,PrecipitationIn,Events,Conditions,WindDirDegrees,DateUTC
12:15 AM,28.4,23.0,80,30.19,6.0,Calm,Calm,-,N/A,,Overcast,0,2013-12-26 05:15:00
12:35 AM,28.4,24.8,86,30.18,3.0,Calm,Calm,-,N/A,,Overcast,0,2013-12-26 05:35:00
12:55 AM,28.4,24.8,86,30.18,3.0,Calm,Calm,-,N/A,,Overcast,0,2013-12-26 05:55:00
1:15 AM,26.6,24.8,93,30.18,2.5,Calm,Calm,-,N/A,,Overcast,0,2013-12-26 06:15:00
1:35 AM,26.6,24.8,93,30.17,2.5,Calm,Calm,-,N/A,,Overcast,0,2013-12-26 06:35:00
1:55 AM,26.6,24.8,93,30.17,1.8,Calm,Calm,-,N/A,,Overcast,0,2013-12-26 06:55:00
2:15 AM,26.6,24.8,93,30.17,2.0,Calm,Calm,-,N/A,,Overcast,0,2013-12-26 07:15:00
2:35 AM,28.4,26.6,93,30.16,1.8,South,4.6,-,N/A,,Overcast,190,2013-12-26 07:35:00
2:55 AM,28.4,26.6,93,30.16,3.0,South,3.5,-,N/A,,Overcast,190,2013-12-26 07:55:00
3:15 AM,28.4,26.6,93,30.15,3.0,South,5.8,-,N/A,,Mostly Cloudy,180,2013-12-26 08:15:00
3:35 AM,28.4,26.6,93,30.14,5.0,SSW,6.9,-,0.01,,Overcast,200,2013-12-26 08:35:00
3:55 AM,28.4,26.6,93,30.14,10.0,SSW,5.8,-,0.01,,Overcast,200,2013-12-26 08:55:00
4:15 AM,30.2,26.6,86,30.13,10.0,South,6.9,-,N/A,,Overcast,190,2013-12-26 09:15:00
4:35 AM,30.2,26.6,86,30.13,10.0,SSW,5.8,-,N/A,,Overcast,200,2013-12-26 09:35:00
4:55 AM,30.2,26.6,86,30.13,10.0,South,6.9,-,N/A,,Overcast,190,2013-12-26 09:55:00
5:15 AM,30.2,26.6,86,30.12,10.0,South,9.2,-,N/A,,Overcast,190,2013-12-26 10:15:00
5:35 AM,30.2,26.6,86,30.13,10.0,South,6.9,-,N/A,,Overcast,190,2013-12-26 10:35:00
5:55 AM,30.2,24.8,80,30.13,10.0,South,6.9,-,N/A,,Overcast,190,2013-12-26 10:55:00
6:15 AM,30.2,24.8,80,30.13,10.0,SSW,8.1,-,N/A,,Overcast,200,2013-12-26 11:15:00
6:35 AM,30.2,24.8,80,30.13,10.0,SSW,8.1,-,N/A,,Overcast,210,2013-12-26 11:35:00
6:55 AM,30.2,24.8,80,30.13,10.0,SSW,8.1,-,N/A,,Overcast,210,2013-12-26 11:55:00
7:15 AM,30.2,24.8,80,30.14,10.0,SW,12.7,16.1,N/A,,Overcast,230,2013-12-26 12:15:00
7:35 AM,30.2,24.8,80,30.15,10.0,SW,10.4,16.1,N/A,,Overcast,220,2013-12-26 12:35:00
7:55 AM,30.2,24.8,80,30.15,10.0,SW,9.2,-,N/A,,Overcast,230,2013-12-26 12:55:00
8:15 AM,30.2,24.8,80,30.16,10.0,SW,11.5,-,N/A,,Overcast,230,2013-12-26 13:15:00
8:35 AM,30.2,24.8,80,30.17,10.0,WSW,13.8,19.6,N/A,,Overcast,240,2013-12-26 13:35:00
8:55 AM,30.2,24.8,80,30.18,10.0,WSW,11.5,19.6,N/A,,Overcast,250,2013-12-26 13:55:00
9:15 AM,30.2,24.8,80,30.19,5.0,WSW,10.4,19.6,N/A,,Overcast,240,2013-12-26 14:15:00
9:35 AM,30.2,26.6,86,30.20,4.0,WSW,9.2,-,N/A,,Overcast,240,2013-12-26 14:35:00
9:55 AM,30.2,24.8,80,30.21,5.0,SW,12.7,20.7,N/A,,Overcast,230,2013-12-26 14:55:00
10:15 AM,30.2,26.6,86,30.22,5.0,SW,13.8,19.6,N/A,,Overcast,230,2013-12-26 15:15:00
10:35 AM,30.2,24.8,80,30.22,7.0,WSW,16.1,20.7,N/A,,Overcast,240,2013-12-26 15:35:00
10:55 AM,32.0,24.8,75,30.22,5.0,SW,15.0,21.9,N/A,,Overcast,230,2013-12-26 15:55:00
11:15 AM,33.8,24.8,70,30.22,10.0,SW,16.1,23.0,N/A,,Overcast,230,2013-12-26 16:15:00
11:35 AM,33.8,23.0,65,30.22,10.0,SW,17.3,31.1,N/A,,Overcast,230,2013-12-26 16:35:00
11:55 AM,33.8,24.8,70,30.21,10.0,WSW,17.3,32.2,N/A,,Overcast,240,2013-12-26 16:55:00
12:15 PM,33.8,21.2,60,30.21,10.0,WSW,15.0,25.3,N/A,,Overcast,250,2013-12-26 17:15:00
12:35 PM,33.8,21.2,60,30.21,10.0,West,15.0,20.7,N/A,,Mostly Cloudy,260,2013-12-26 17:35:00
12:55 PM,33.8,21.2,60,30.21,10.0,West,16.1,25.3,N/A,,Mostly Cloudy,260,2013-12-26 17:55:00
1:15 PM,35.6,19.4,52,30.21,10.0,WSW,12.7,23.0,N/A,,Mostly Cloudy,250,2013-12-26 18:15:00
1:35 PM,35.6,19.4,52,30.21,10.0,WSW,16.1,23.0,N/A,,Partly Cloudy,250,2013-12-26 18:35:00
1:55 PM,35.6,19.4,52,30.21,10.0,WSW,9.2,19.6,N/A,,Clear,250,2013-12-26 18:55:00
2:15 PM,35.6,19.4,52,30.22,10.0,WSW,12.7,20.7,N/A,,Partly Cloudy,240,2013-12-26 19:15:00
2:35 PM,35.6,19.4,52,30.22,10.0,WSW,17.3,28.8,N/A,,Clear,240,2013-12-26 19:35:00
2:55 PM,37.4,19.4,48,30.22,10.0,WSW,11.5,18.4,N/A,,Clear,240,2013-12-26 19:55:00
3:15 PM,37.4,17.6,45,30.22,10.0,WSW,13.8,23.0,N/A,,Scattered Clouds,240,2013-12-26 20:15:00
3:35 PM,35.6,17.6,48,30.23,10.0,SW,13.8,20.7,N/A,,Mostly Cloudy,230,2013-12-26 20:35:00
3:55 PM,35.6,17.6,48,30.23,10.0,WSW,16.1,23.0,N/A,,Partly Cloudy,250,2013-12-26 20:55:00
4:15 PM,35.6,15.8,44,30.23,10.0,WSW,9.2,-,N/A,,Clear,250,2013-12-26 21:15:00
4:35 PM,35.6,15.8,44,30.24,10.0,WSW,9.2,-,N/A,,Clear,250,2013-12-26 21:35:00
4:55 PM,35.6,15.8,44,30.25,10.0,West,13.8,18.4,N/A,,Clear,260,2013-12-26 21:55:00
5:15 PM,33.8,14.0,44,30.25,10.0,WSW,10.4,16.1,N/A,,Clear,250,2013-12-26 22:15:00
5:35 PM,33.8,15.8,48,30.26,10.0,WSW,5.8,-,N/A,,Clear,250,2013-12-26 22:35:00
5:55 PM,32.0,15.8,51,30.26,10.0,West,6.9,-,N/A,,Clear,260,2013-12-26 22:55:00
6:15 PM,33.8,15.8,48,30.27,10.0,West,6.9,-,N/A,,Clear,260,2013-12-26 23:15:00
6:35 PM,32.0,15.8,51,30.28,10.0,West,8.1,-,N/A,,Clear,260,2013-12-26 23:35:00
6:55 PM,30.2,15.8,55,30.29,10.0,WSW,5.8,-,N/A,,Clear,250,2013-12-26 23:55:00
7:15 PM,30.2,15.8,55,30.30,10.0,WSW,6.9,-,N/A,,Clear,250,2013-12-27 00:15:00
7:35 PM,30.2,15.8,55,30.31,10.0,WSW,8.1,-,N/A,,Clear,250,2013-12-27 00:35:00
7:55 PM,30.2,15.8,55,30.31,10.0,WSW,6.9,-,N/A,,Clear,250,2013-12-27 00:55:00
8:15 PM,30.2,15.8,55,30.32,10.0,West,4.6,-,N/A,,Clear,260,2013-12-27 01:15:00
8:35 PM,30.2,15.8,55,30.32,10.0,West,4.6,-,N/A,,Clear,260,2013-12-27 01:35:00
8:55 PM,28.4,15.8,59,30.32,10.0,WSW,4.6,-,N/A,,Clear,250,2013-12-27 01:55:00
9:15 PM,26.6,17.6,69,30.32,10.0,WSW,4.6,-,N/A,,Clear,250,2013-12-27 02:15:00
9:35 PM,26.6,17.6,69,30.32,10.0,SW,3.5,-,N/A,,Clear,230,2013-12-27 02:35:00
9:55 PM,26.6,17.6,69,30.32,10.0,Calm,Calm,-,N/A,,Clear,0,2013-12-27 02:55:00
10:15 PM,24.8,17.6,74,30.32,10.0,Calm,Calm,-,N/A,,Clear,0,2013-12-27 03:15:00
10:35 PM,24.8,17.6,74,30.32,10.0,Calm,Calm,-,N/A,,Scattered Clouds,0,2013-12-27 03:35:00
10:55 PM,21.2,17.6,86,30.33,10.0,Calm,Calm,-,N/A,,Partly Cloudy,0,2013-12-27 03:55:00
11:15 PM,23.0,17.6,80,30.33,10.0,Calm,Calm,-,N/A,,Mostly Cloudy,0,2013-12-27 04:15:00
11:35 PM,21.2,17.6,86,30.33,10.0,Calm,Calm,-,N/A,,Overcast,0,2013-12-27 04:35:00
11:55 PM,21.2,17.6,86,30.33,10.0,Calm,Calm,-,N/A,,Overcast,0,2013-12-27 04:55:00